DW5861 Weather Reports


time (UTC)temp
C
wind
direction
speed
KPH
gust
KPH
rain 1hr
cm
rain 24hr
cm
rain mn
cm
humidity
%
barometer
mb
20260502190504 23 334 3.2 8.0 0.00 0.56 0.03 52 1019.7
20260502190004 23 345 3.2 11.3 0.00 0.56 0.03 53 1019.8
20260502185504 23 16 3.2 12.9 0.00 0.56 0.03 52 1019.9
20260502185025 23 359 3.2 12.9 0.00 0.56 0.03 55 1019.9
20260502184503 23 347 3.2 8.0 0.00 0.56 0.03 50 1020.0
20260502184025 23 349 3.2 11.3 0.00 0.56 0.03 55 1020.0
20260502183504 22 349 3.2 11.3 0.00 0.56 0.03 50 1020.1
20260502183004 22 14 3.2 6.4 0.00 0.56 0.03 56 1020.1
20260502182525 22 58 4.8 16.1 0.00 0.56 0.03 53 1020.2
20260502182004 22 54 4.8 16.1 0.00 0.56 0.03 51 1020.4
20260502181504 22 33 4.8 16.1 0.00 0.56 0.03 51 1020.5
20260502181004 22 27 4.8 16.1 0.00 0.56 0.03 50 1020.4
20260502180503 22 17 3.2 8.0 0.00 0.56 0.03 54 1020.5
20260502170504 21 79 3.2 9.7 0.00 0.58 0.03 61 1021.0
20260502164004 21 332 3.2 9.7 0.00 0.61 0.03 63 1021.1
20260502163504 21 346 3.2 6.4 0.00 0.61 0.03 64 1021.2
20260502163011 21 12 3.2 8.0 0.00 0.64 0.03 61 1021.1
20260502162504 21 26 3.2 8.0 0.00 0.64 0.03 65 1021.1
20260502162025 21 48 3.2 8.0 0.00 0.64 0.03 61 1021.1
20260502161504 21 48 4.8 8.0 0.00 0.64 0.03 66 1021.1
20260502161004 20 33 3.2 8.0 0.03 0.64 0.03 65 1021.0
20260502160525 20 340 1.6 9.7 0.03 0.64 0.03 71 1021.1
20260502152003 18 31 3.2 9.7 0.03 0.69 0.03 73 1020.9
20260502151503 18 30 3.2 11.3 0.03 0.69 0.03 77 1021.0
20260502151003 18 28 3.2 11.3 0.00 0.69 0.00 78 1021.0
20260502150503 18 28 1.6 8.0 0.00 0.69 0.00 82 1020.9
20260502130503 10 74 0.0 4.8 0.00 1.09 0.00 96 1019.6
20260502123503 9 308 0.0 1.6 0.00 1.17 0.00 96 1019.2
20260502123003 9 350 0.0 1.6 0.00 1.19 0.00 96 1019.1
20260502122503 9 101 0.0 1.6 0.00 1.19 0.00 96 1019.1
20260502122003 9 43 0.0 1.6 0.00 1.22 0.00 96 1019.1
20260502121503 9 36 0.0 1.6 0.00 1.22 0.00 96 1019.1
20260502121004 9 111 0.0 1.6 0.00 1.24 0.00 96 1018.9
20260502120506 9 160 0.0 1.6 0.00 1.27 0.00 96 1018.8
20260502115503 9 208 0.0 1.6 0.00 1.32 0.00 96 1018.5
20260502115003 9 202 0.0 1.6 0.00 1.35 0.00 96 1018.4
20260502114503 9 136 0.0 1.6 0.00 1.40 0.00 96 1018.2
20260502114024 9 35 0.0 1.6 0.00 1.40 0.00 95 1018.2
20260502113503 9 22 0.0 1.6 0.00 1.42 0.00 96 1018.1
20260502113004 9 9 0.0 1.6 0.00 1.45 0.00 96 1018.1
20260502112503 9 350 0.0 1.6 0.00 1.45 0.00 95 1018.1
20260502112004 9 122 0.0 1.6 0.00 1.47 0.00 95 1018.2
20260502111503 9 137 0.0 1.6 0.00 1.50 0.00 96 1018.1
20260502111003 9 140 0.0 1.6 0.00 1.50 0.00 96 1017.9
20260502110503 10 258 0.0 1.6 0.00 1.52 0.00 96 1017.9
20260502110024 10 229 0.0 1.6 0.00 1.52 0.00 96 1017.9
20260502105510 10 219 0.0 1.6 0.00 1.52 0.00 96 1017.8
20260502105003 10 0 0.0 0.0 0.00 1.55 0.00 96 1017.8
20260502104503 10 198 0.0 1.6 0.00 1.55 0.00 96 1017.7
20260502104004 10 228 0.0 1.6 0.00 1.55 0.00 96 1017.6
20260502103503 10 247 0.0 1.6 0.00 1.55 0.00 96 1017.6
20260502103003 10 303 0.0 1.6 0.00 1.57 0.00 96 1017.5
20260502102503 10 17 0.0 1.6 0.00 1.57 0.00 96 1017.5
20260502101503 10 0 0.0 0.0 0.00 1.60 0.00 96 1017.4
20260502101003 10 0 0.0 0.0 0.00 1.63 0.00 96 1017.3
20260502100504 10 271 0.0 1.6 0.00 1.63 0.00 96 1017.3
20260502091503 11 339 0.0 3.2 0.00 1.65 0.00 96 1017.0
20260502091003 11 327 0.0 3.2 0.00 1.65 0.00 96 1017.1
20260502090524 11 313 0.0 3.2 0.00 1.65 0.00 96 1017.0
20260502071524 11 349 1.6 3.2 0.00 1.65 0.00 96 1016.7
20260502071003 11 346 1.6 3.2 0.00 1.65 0.00 96 1016.7
20260502070503 11 341 1.6 3.2 0.00 1.65 0.00 96 1016.7
20260502070003 11 333 1.6 3.2 0.00 1.65 0.00 96 1016.6
20260502065524 11 327 1.6 3.2 0.00 1.65 0.00 96 1016.5
20260502065003 11 326 1.6 3.2 0.00 1.65 0.00 96 1016.5
20260502064503 11 321 0.0 1.6 0.00 1.65 0.00 96 1016.5
20260502064024 11 335 1.6 3.2 0.00 1.65 0.00 96 1016.4
20260502063503 11 340 1.6 3.2 0.00 1.68 0.00 96 1016.4
20260502063003 11 330 1.6 3.2 0.00 1.68 0.00 96 1016.4
20260502062503 11 316 1.6 3.2 0.00 1.68 0.00 96 1016.5
20260502062024 11 324 1.6 3.2 0.00 1.68 0.00 96 1016.5
20260502061503 11 62 1.6 3.2 0.00 1.70 0.00 96 1016.4
20260502061003 11 144 0.0 3.2 0.00 1.70 0.00 95 1016.3
20260502060524 11 349 0.0 1.6 0.00 1.70 0.00 95 1016.5
20260502060003 11 324 0.0 1.6 0.00 1.70 0.00 95 1016.6
20260502055503 11 349 0.0 1.6 0.00 1.70 0.00 95 1016.6
20260502055003 11 322 0.0 1.6 0.00 1.70 0.00 95 1016.5
20260502054503 11 313 0.0 1.6 0.00 1.73 0.00 95 1016.6
20260502054003 11 323 0.0 1.6 0.00 1.73 0.00 96 1016.6
20260502053524 11 330 1.6 3.2 0.00 1.73 0.00 96 1016.6
20260502053003 11 333 1.6 3.2 0.00 1.73 0.00 96 1016.7
20260502052503 11 355 1.6 1.6 0.00 1.73 0.00 95 1016.7
20260502052024 11 1 0.0 1.6 0.00 1.73 0.00 96 1016.8
20260502051503 11 330 0.0 1.6 0.00 1.73 0.00 96 1016.9
20260502051003 11 321 0.0 1.6 0.00 1.73 0.00 96 1017.0
20260502050503 11 328 0.0 1.6 0.00 1.73 0.00 96 1016.9
20260502050003 11 333 0.0 1.6 0.00 1.73 0.00 96 1016.9
20260502045503 11 335 0.0 1.6 0.00 1.73 1.73 96 1016.9
20260502044503 11 317 0.0 3.2 0.00 1.73 1.73 96 1016.9
20260502044003 11 317 0.0 3.2 0.00 1.73 1.73 95 1016.9
20260502043503 11 261 0.0 3.2 0.00 1.73 1.73 95 1016.9
20260502043004 11 9 0.0 3.2 0.00 1.73 1.73 95 1017.0
20260502042504 11 351 0.0 3.2 0.00 1.73 1.73 95 1016.8
20260502042004 11 333 1.6 3.2 0.00 1.73 1.73 95 1016.8
20260502041525 11 334 1.6 3.2 0.00 1.73 1.73 95 1016.8
20260502041004 11 335 1.6 3.2 0.00 1.73 1.73 95 1016.8
20260502040504 11 330 1.6 3.2 0.00 1.73 1.73 96 1016.8
20260502040025 11 325 0.0 3.2 0.00 1.73 1.73 95 1016.7
20260502035504 11 338 1.6 3.2 0.00 1.73 1.73 95 1016.8
20260502035004 11 333 1.6 3.2 0.00 1.73 1.73 95 1016.7
20260502034504 11 318 0.0 3.2 0.00 1.73 1.73 95 1016.7
20260502034004 11 1 0.0 4.8 0.00 1.73 1.73 95 1016.5
20260502033525 11 7 1.6 4.8 0.00 1.73 1.73 95 1016.5
20260502033004 11 357 1.6 3.2 0.00 1.73 1.73 95 1016.6
20260502032504 11 332 1.6 3.2 0.00 1.73 1.73 95 1016.6
20260502032004 11 320 1.6 4.8 0.00 1.73 1.73 95 1016.6
20260502031504 11 348 1.6 4.8 0.00 1.73 1.73 95 1016.2
20260502031028 11 5 1.6 4.8 0.00 1.73 1.73 95 1015.8
20260502030504 11 9 1.6 3.2 0.03 1.75 1.73 95 1016.2
20260502030004 11 359 1.6 3.2 0.03 1.75 1.73 95 1016.4
20260502025504 11 350 1.6 3.2 0.03 1.75 1.73 95 1016.7
20260502025004 11 343 1.6 3.2 0.03 1.75 1.73 95 1016.6
20260502024504 11 323 1.6 3.2 0.03 1.75 1.73 95 1016.8
20260502024004 11 336 1.6 4.8 0.03 1.75 1.73 95 1016.8
20260502023504 11 331 1.6 4.8 0.03 1.75 1.73 95 1016.6
20260502023004 11 332 1.6 6.4 0.05 1.75 1.73 95 1016.5
20260502022504 11 339 3.2 6.4 0.05 1.75 1.73 95 1016.2
20260502022025 11 339 3.2 4.8 0.05 1.75 1.73 95 1016.0
20260502021504 11 347 3.2 11.3 0.05 1.75 1.73 95 1015.7
20260502021004 11 343 3.2 11.3 0.08 1.75 1.73 95 1015.6
20260502020504 11 330 3.2 6.4 0.05 1.73 1.70 95 1015.6
20260502020004 11 341 3.2 6.4 0.08 1.73 1.70 95 1015.5
20260502015504 11 355 3.2 4.8 0.08 1.73 1.70 95 1015.5
20260502015004 11 358 1.6 6.4 0.08 1.73 1.70 95 1015.6
20260502014504 11 355 1.6 6.4 0.08 1.73 1.70 95 1015.8
20260502014025 11 346 1.6 8.0 0.08 1.75 1.70 95 1015.8
20260502013504 11 344 1.6 8.0 0.10 1.75 1.70 95 1015.9
20260502013004 11 335 1.6 6.4 0.08 1.73 1.68 95 1016.0
20260502012504 11 319 1.6 4.8 0.10 1.73 1.68 95 1015.8
20260502012004 11 319 1.6 4.8 0.10 1.73 1.68 95 1015.6
20260502011504 11 343 3.2 9.7 0.10 1.73 1.68 95 1015.4
20260502011025 11 347 3.2 9.7 0.08 1.70 1.65 95 1015.2
20260502010504 11 337 3.2 8.0 0.08 1.70 1.65 95 1015.1
20260502010025 12 330 1.6 8.0 0.05 1.68 1.63 95 1014.9
20260502005504 12 343 1.6 4.8 0.05 1.68 1.63 95 1014.9
20260502005004 12 345 1.6 6.4 0.05 1.68 1.63 95 1014.8
20260502004504 12 323 1.6 6.4 0.05 1.68 1.63 95 1014.9
20260502004004 12 3 1.6 4.8 0.05 1.68 1.63 95 1014.8
20260502003504 12 15 3.2 8.0 0.03 1.65 1.60 95 1014.4
20260502003004 12 7 3.2 8.0 0.03 1.65 1.60 95 1014.4
20260502002504 12 349 1.6 4.8 0.03 1.63 1.57 95 1014.3
20260502002004 12 334 1.6 4.8 0.03 1.63 1.57 95 1014.2
20260502001525 12 334 1.6 6.4 0.03 1.63 1.57 95 1014.0
20260502001004 12 327 3.2 6.4 0.05 1.63 1.57 95 1013.8
20260502000504 12 357 3.2 9.7 0.10 1.63 1.57 95 1013.3
20260502000025 12 353 3.2 9.7 0.13 1.63 1.57 95 1012.8
20260501235504 12 350 3.2 8.0 0.13 1.63 1.57 95 1012.9
20260501235005 12 354 3.2 8.0 0.15 1.63 1.57 95 1012.8
20260501234504 12 356 3.2 12.9 0.18 1.63 1.57 95 1013.0
20260501234004 12 356 3.2 12.9 0.18 1.63 1.57 95 1012.9
20260501233504 12 337 1.6 6.4 0.18 1.63 1.57 95 1012.8
20260501233004 12 348 1.6 8.0 0.20 1.63 1.57 95 1013.0
20260501232504 12 356 1.6 8.0 0.18 1.60 1.55 95 1012.8
20260501232004 12 3 3.2 11.3 0.18 1.60 1.55 95 1012.8
20260501231504 12 18 3.2 11.3 0.20 1.60 1.55 95 1013.0
20260501231004 12 5 1.6 6.4 0.18 1.57 1.52 95 1013.5
20260501230525 12 346 1.6 6.4 0.13 1.52 1.47 95 1013.9
20260501230025 12 347 1.6 6.4 0.10 1.50 1.47 95 1014.0
20260501225526 12 350 3.2 6.4 0.10 1.50 1.45 95 1013.8
20260501225004 12 5 3.2 6.4 0.08 1.47 1.42 95 1013.6
20260501224505 12 352 3.2 6.4 0.05 1.45 1.40 95 1013.7
20260501224004 12 344 3.2 6.4 0.08 1.45 1.40 95 1013.6
20260501223504 12 354 1.6 6.4 0.08 1.45 1.40 95 1013.7
20260501223004 12 349 1.6 6.4 0.05 1.42 1.37 95 1013.8
20260501222504 12 359 1.6 9.7 0.05 1.42 1.37 95 1013.8
20260501222004 12 352 3.2 9.7 0.08 1.42 1.37 94 1013.7
20260501221504 12 343 3.2 8.0 0.08 1.40 1.35 95 1013.4
20260501221004 12 8 3.2 11.3 0.10 1.40 1.35 95 1013.2
20260501220504 12 7 4.8 11.3 0.10 1.40 1.35 95 1013.0
20260501220004 12 352 3.2 9.7 0.13 1.40 1.35 95 1012.9
20260501215525 12 345 3.2 6.4 0.13 1.40 1.35 94 1012.8
20260501215004 12 8 3.2 12.9 0.13 1.40 1.35 94 1012.8
20260501214504 12 17 3.2 12.9 0.13 1.40 1.35 94 1012.5
20260501214004 12 14 3.2 9.7 0.13 1.37 1.32 94 1012.8
20260501213504 12 17 3.2 9.7 0.13 1.37 1.32 94 1012.7
20260501213025 12 11 3.2 8.0 0.13 1.37 1.32 94 1012.8
20260501212525 12 358 3.2 8.0 0.13 1.37 1.32 94 1013.0
20260501212004 12 347 3.2 6.4 0.10 1.35 1.30 94 1013.1
20260501211504 12 343 1.6 6.4 0.08 1.32 1.27 94 1013.0
20260501211007 12 348 1.6 6.4 0.05 1.30 1.24 94 1013.0
20260501210504 12 355 1.6 4.8 0.05 1.30 1.24 94 1013.1
20260501210004 12 350 3.2 4.8 0.03 1.27 1.22 94 1013.3
20260501205504 12 349 3.2 6.4 0.03 1.27 1.22 94 1013.2
20260501205004 12 341 1.6 6.4 0.03 1.27 1.22 93 1013.4
20260501204526 12 336 3.2 6.4 0.03 1.27 1.22 93 1013.4
20260501204004 12 344 3.2 6.4 0.00 1.24 1.19 93 1013.0
20260501203504 12 338 3.2 6.4 0.00 1.24 1.19 93 1012.8
20260501203004 12 354 3.2 11.3 0.00 1.24 1.19 93 1012.7
20260501202504 12 1 3.2 11.3 0.00 1.24 1.19 94 1012.7
20260501202025 12 349 3.2 12.9 0.00 1.24 1.19 93 1012.7
20260501201504 13 345 3.2 12.9 0.00 1.24 1.19 94 1012.6
20260501201004 13 351 3.2 6.4 0.00 1.24 1.19 93 1012.7
20260501200504 13 3 3.2 9.7 0.00 1.24 1.19 94 1012.3
20260501200004 13 359 3.2 9.7 0.00 1.24 1.19 94 1012.0
20260501195504 13 351 3.2 11.3 0.00 1.24 1.19 94 1012.2
20260501195004 13 4 4.8 16.1 0.00 1.24 1.19 94 1011.5
20260501194504 13 14 4.8 16.1 0.00 1.24 1.19 94 1011.1
20260501194004 13 18 4.8 14.5 0.00 1.24 1.19 94 1011.0
20260501193504 13 18 3.2 14.5 0.00 1.27 1.19 94 1011.1
20260501193004 13 20 4.8 14.5 0.00 1.27 1.19 95 1011.1
20260501192504 13 7 4.8 14.5 0.00 1.27 1.19 95 1011.1
20260501192004 13 5 4.8 17.7 0.00 1.27 1.19 95 1011.1
20260501191504 13 23 4.8 17.7 0.00 1.27 1.19 95 1010.5
20260501191004 13 18 4.8 14.5 0.00 1.27 1.19 95 1010.4